Temp
80 79 78 78 78 78 78 79 80 79 77 76 75 77 75 72 68 66 67 67 70 74 78 76 77 81 80 79 80 80 80 82 83 81 80 80 78 77 77 78 79 79 81 81 82 82 83 83 83 83 84 84 84 84 83 82 81 81 81 81 81 81 81 80 78 76 76 76 76 76 77 77 77 77
79 79 79 78 78 79 79 78 80 77 76 76 76 76 75 74 73 68 68 67 70 71 73 77 77 78 78 81 80 80 80 82 83 82 81 80 79 78 77 77 77 77 78 79 80 81 82 83 83 83 83 83 84 84 83 83 83 82 82 82 81 81 81 79 77 76 76 75 75 75 76 76 76 76
79 77 78 77 78 79 80 79 80 78 77 76 76 75 75 75 75 71 68 68 69 77 75 77 78 78 79 82 81 82 81 82 82 82 81 81 80 79 78 77 76 76 77 77 78 80 81 82 83 83 82 82 82 83 83 83 83 82 82 82 82 82 80 78 77 76 76 75 75 75 75 76 76 76
80 78 78 77 76 77 77 79 79 77 77 77 75 76 75 74 74 73 70 70 70 73 77 76 78 79 79 80 81 80 80 83 80 82 81 81 80 79 79 77 76 76 76 76 77 77 79 80 82 82 82 82 82 82 82 82 82 82 82 82 82 81 79 77 76 76 76 75 75 75 75 75 75 75
80 77 78 78 78 77 78 78 79 78 78 77 77 76 75 74 74 75 73 71 72 73 73 76 78 79 80 78 79 80 80 80 80 80 81 80 80 80 79 79 76 75 75 75 75 75 76 78 80 81 82 82 82 82 82 82 82 82 82 81 81 79 77 76 76 75 75 75 75 75 75 75 75 75
81 78 76 78 79 78 79 79 79 79 79 78 78 75 76 75 75 76 75 72 71 73 73 75 76 76 80 80 78 79 79 79 78 79 80 81 80 81 80 78 79 75 74 74 74 74 74 75 76 78 80 81 81 81 81 81 80 79 79 79 77 75 75 75 75 75 75 75 75 75 75 75 75 74
80 79 77 78 79 81 79 79 80 80 79 79 77 78 77 77 77 76 76 73 72 73 73 72 74 75 77 79 79 78 79 80 79 78 78 80 80 81 80 79 80 76 73 74 74 74 73 73 74 75 76 77 79 79 80 79 76 74 75 74 72 72 73 73 73 74 75 75 75 75 74 74 74 74
80 80 78 79 80 81 79 78 78 79 79 78 77 78 77 77 78 76 76 76 74 73 73 72 76 75 75 77 75 77 79 78 78 78 80 79 80 80 80 80 80 79 75 74 73 73 73 73 72 72 73 74 76 76 74 72 72 71 70 70 71 71 71 71 70 71 72 73 73 73 74 74 74 74
80 80 80 80 79 80 79 78 78 78 78 79 77 78 78 77 77 77 77 75 74 73 73 73 73 74 75 75 74 76 77 76 75 75 76 79 79 78 79 80 84 79 76 74 73 73 73 73 72 71 71 71 71 71 70 70 69 69 69 68 69 69 69 69 69 69 69 69 70 70 71 71 71 72
81 81 80 81 80 80 79 78 78 78 79 78 77 77 77 77 77 75 74 75 73 74 72 73 73 75 75 77 76 75 76 76 76 74 75 74 76 77 78 78 82 86 85 81 78 73 72 72 71 71 71 70 70 69 69 69 69 68 67 67 67 67 67 67 67 67 67 67 67 67 68 68 69 70
81 82 82 81 81 80 80 80 79 78 79 80 78 78 77 77 76 75 74 74 74 73 73 72 72 73 73 74 76 75 76 75 75 76 73 74 73 73 75 77 80 81 84 79 78 78 76 75 74 71 69 69 69 69 69 69 69 69 68 66 66 66 66 66 66 66 65 65 65 65 65 66 68 69
81 81 82 83 82 81 79 81 80 80 79 79 79 78 78 76 76 76 75 73 72 72 72 72 72 71 73 74 74 74 76 76 74 74 75 75 74 76 72 74 77 76 77 80 81 77 75 74 73 71 70 69 69 69 69 69 70 70 70 68 66 66 66 66 65 65 65 64 64 64 63 63 64 66
81 82 82 83 82 82 82 83 83 83 83 80 78 77 76 76 75 75 74 73 72 71 72 72 72 71 71 73 74 73 73 72 75 73 73 73 73 73 74 75 74 76 76 77 77 77 77 76 74 74 73 73 71 71 70 71 71 71 70 68 67 67 66 66 65 65 64 64 64 64 63 62 62 62
81 82 82 83 84 83 84 84 85 85 85 85 84 79 76 76 75 74 74 73 73 72 71 72 72 71 72 73 73 73 72 72 72 74 72 72 73 71 72 72 73 74 75 75 75 76 76 76 75 73 73 75 76 74 72 72 72 71 69 67 67 67 66 66 66 65 64 64 63 63 63 62 62 62
80 81 82 82 84 84 84 84 85 85 85 86 86 85 83 81 78 75 74 74 74 73 73 73 73 72 73 73 73 74 74 70 73 72 71 73 70 70 69 69 71 72 76 72 70 74 72 75 74 74 74 75 75 75 75 72 70 69 68 68 67 66 66 66 66 65 65 64 64 63 62 62 62 61
80 80 81 82 82 82 82 83 83 85 85 85 85 86 86 84 84 83 79 76 74 73 73 73 73 74 74 74 72 72 72 72 72 71 71 71 71 70 69 67 70 70 74 72 69 73 72 72 73 73 75 77 77 78 74 71 69 69 68 68 67 67 66 66 66 65 65 64 64 63 63 62 62 61
79 80 80 81 81 84 84 84 83 81 83 85 84 84 85 85 83 77 77 80 80 77 75 75 74 74 74 73 73 74 73 72 73 70 70 70 70 71 70 70 69 71 72 73 70 71 73 73 75 74 76 77 77 78 72 71 70 70 69 68 67 67 66 66 66 65 65 64 64 63 62 62 62 61
73 74 79 80 80 82 83 82 82 81 80 80 81 81 80 79 82 79 77 77 79 80 79 76 76 74 72 74 73 74 74 73 73 71 72 71 71 71 71 73 73 72 73 74 69 69 70 72 73 73 75 76 76 76 73 70 70 69 69 68 67 67 66 66 66 65 65 64 64 63 62 61 61 61
74 73 75 78 80 80 80 82 82 80 79 78 78 77 77 77 78 77 78 78 78 78 77 77 77 76 75 75 74 73 74 75 75 76 74 73 73 72 70 69 69 70 72 72 70 69 72 71 72 74 75 76 76 76 72 69 68 68 68 68 67 66 66 66 65 65 65 64 64 63 62 61 61 60
72 74 74 76 78 79 78 82 83 83 80 77 76 75 75 75 75 75 78 75 76 78 76 76 76 75 75 75 75 75 74 73 73 75 75 72 71 71 69 70 71 72 71 73 71 69 71 72 72 75 77 75 74 75 75 71 69 68 68 67 66 65 64 64 64 64 64 64 63 63 62 61 60 59
72 73 74 74 75 78 78 79 73 76 83 75 76 74 74 74 73 72 74 71 71 72 69 70 71 70 68 67 65 64 65 71 73 72 71 70 70 69 68 70 70 72 72 71 73 71 71 71 71 73 75 75 74 75 76 76 71 68 67 65 64 64 63 63 63 63 63 63 62 62 61 60 60 59
72 74 78 77 73 74 77 76 72 72 80 75 75 73 73 71 71 71 73 74 72 68 67 67 66 66 66 67 67 67 66 65 71 73 70 72 70 69 69 69 71 72 71 71 73 68 71 72 70 70 71 71 73 75 75 76 73 69 69 67 66 65 64 63 62 61 61 61 61 61 60 59 59 61
72 72 76 78 76 75 76 66 67 70 79 74 74 72 72 70 70 72 72 72 72 70 69 70 69 70 71 71 70 72 72 69 72 73 73 72 70 68 70 70 69 68 69 71 72 69 69 70 68 68 67 67 73 75 75 73 72 74 75 75 75 69 67 66 64 64 63 62 61 60 59 59 58 62
71 72 73 76 73 70 68 63 64 67 71 73 72 71 71 70 70 72 71 72 72 72 72 71 72 72 72 72 72 72 72 73 73 71 72 72 71 70 69 69 69 68 67 69 70 69 68 69 69 66 67 66 66 69 70 73 73 73 73 73 73 70 69 68 67 66 64 63 61 59 58 57 57 61
70 71 72 74 74 66 63 62 61 61 65 73 73 72 71 72 72 73 70 73 77 71 71 71 71 71 71 72 72 72 72 72 73 72 72 72 72 71 70 69 69 69 71 70 70 69 66 67 67 66 65 65 66 67 70 71 72 72 73 72 71 71 71 71 69 71 66 63 62 59 57 56 56 59
71 72 73 74 72 64 62 61 59 58 61 65 73 72 67 67 68 73 72 71 71 71 71 70 70 70 70 70 70 71 72 72 73 73 73 72 72 72 72 71 69 68 70 71 67 68 67 66 68 66 65 64 67 68 67 69 72 72 71 70 71 70 70 69 69 69 69 68 68 65 63 58 57 56
70 72 72 74 71 60 58 56 56 57 58 67 70 64 62 63 65 75 71 70 70 69 69 69 69 69 69 69 69 70 70 72 72 72 72 72 72 72 73 73 71 70 72 72 70 70 68 67 68 67 67 68 67 67 67 67 67 68 69 70 70 69 70 68 67 67 67 67 67 62 60 60 58 56
70 70 70 71 62 56 53 55 57 58 62 67 61 60 61 64 69 72 71 69 69 69 69 69 69 69 69 69 69 70 71 71 71 72 72 72 72 71 71 71 72 72 72 72 70 70 69 68 68 70 69 68 66 66 65 67 67 68 67 69 69 68 68 67 66 66 66 66 66 67 66 66 66 63
70 68 63 60 56 55 53 55 57 59 60 59 60 59 62 70 69 69 69 69 69 68 68 68 69 69 70 70 71 71 71 71 71 70 70 71 71 70 70 70 70 70 72 72 71 70 69 69 69 69 68 66 65 65 65 65 66 66 67 66 66 66 66 66 64 63 64 65 66 65 64 64 64 64
65 61 60 59 58 59 59 62 64 66 67 62 62 63 64 68 69 69 69 69 68 68 68 68 68 69 69 69 71 72 71 70 70 70 68 68 68 67 67 68 66 67 69 70 70 70 70 69 68 68 66 65 66 65 65 65 65 66 67 65 64 67 66 66 64 64 64 64 65 63 64 64 64 63
66 65 66 65 63 64 65 67 68 69 69 67 66 65 66 67 68 69 69 69 69 69 68 68 69 69 69 70 70 68 69 69 69 69 69 67 67 66 64 65 64 65 67 67 68 69 68 67 67 66 65 64 65 66 66 65 63 62 64 65 63 60 62 62 62 62 61 62 63 63 63 62 62 64
68 69 69 65 68 68 66 67 68 67 68 68 66 65 66 66 68 70 71 72 70 69 69 69 69 69 69 69 68 68 68 68 67 69 68 66 65 65 64 62 62 62 63 66 68 68 69 67 66 66 67 66 65 65 65 64 62 61 62 63 62 60 60 59 59 59 60 58 59 61 61 60 59 59
68 68 67 67 67 67 66 66 66 67 67 67 67 66 66 66 67 67 68 68 69 69 68 67 68 68 67 67 69 68 66 66 66 65 66 65 65 63 62 62 62 61 62 63 64 65 64 63 65 62 61 61 63 64 64 61 60 59 57 59 58 57 58 58 58 57 58 57 57 59 59 57 56 55
67 67 67 67 67 67 67 67 66 67 67 67 68 68 67 67 67 67 68 68 68 68 68 68 67 67 67 67 66 66 65 64 64 62 65 63 63 62 61 61 60 61 62 61 62 63 62 60 60 61 62 63 63 61 61 59 56 56 55 56 56 55 56 58 57 55 55 56 56 56 55 55 55 54
66 66 66 67 67 68 68 68 68 68 67 67 67 67 68 68 68 68 68 67 67 67 67 67 67 67 66 65 65 64 65 65 63 62 63 64 63 63 61 60 60 60 61 61 61 61 60 59 59 60 61 62 63 63 59 57 55 54 53 53 54 55 55 56 57 56 54 55 53 54 53 52 54 53
67 67 67 67 67 68 67 68 69 69 68 68 67 67 67 67 68 68 68 67 67 67 67 66 66 66 65 65 64 63 63 64 62 62 62 62 61 60 60 61 61 59 59 61 62 61 59 57 57 56 55 55 56 54 57 58 57 55 54 53 51 54 54 54 55 53 53 53 53 52 52 51 54 53
67 67 67 67 68 68 68 68 69 69 69 68 68 68 68 67 68 68 69 68 68 67 67 66 65 65 65 65 64 63 64 63 62 61 62 61 61 62 62 63 63 61 59 60 61 61 60 59 56 55 53 52 51 54 53 53 55 55 56 53 52 52 53 54 53 53 52 52 51 53 54 51 52 52
67 67 68 68 68 69 69 69 69 68 68 68 68 68 68 68 68 69 69 67 67 67 66 65 65 64 64 64 63 62 62 62 62 61 62 62 61 60 60 60 59 59 59 59 62 60 58 58 56 54 52 52 51 50 51 52 53 56 56 56 53 53 57 54 53 51 52 51 53 52 51 52 53 52
67 67 67 68 69 69 69 69 69 68 68 68 68 68 68 68 67 66 66 66 66 66 65 64 63 63 63 63 62 63 62 61 61 60 61 62 61 59 59 59 59 58 58 59 61 60 58 57 60 59 56 54 52 50 52 52 54 55 56 55 56 53 52 53 54 52 51 52 52 52 53 52 53 55
67 68 68 68 69 69 69 68 68 68 68 68 68 68 68 67 66 65 65 65 65 65 65 64 64 63 62 62 63 62 62 62 61 60 61 61 62 62 60 59 58 57 56 58 59 60 57 58 60 59 58 58 58 56 55 56 55 55 56 57 54 59 58 55 55 54 55 52 52 53 53 50 52 53
66 66 67 68 67 67 67 66 67 67 67 68 68 68 67 66 66 65 65 65 66 64 63 63 63 63 63 62 62 62 62 60 60 60 60 61 62 62 62 63 59 57 58 57 58 57 59 60 63 66 64 59 58 58 59 57 57 54 55 57 56 56 58 57 56 54 55 56 55 53 52 52 52 52
66 65 66 66 66 66 66 66 66 66 67 67 67 67 66 65 66 68 66 67 65 64 63 63 62 62 62 61 62 61 61 61 61 60 60 59 60 61 63 61 59 57 56 57 58 58 61 59 61 63 62 59 60 58 56 56 56 57 56 55 56 56 55 56 55 56 56 55 55 54 52 50 49 52
65 65 65 65 65 65 66 66 66 66 66 66 66 66 65 65 64 66 64 64 64 63 63 62 62 62 62 61 61 61 61 61 61 60 60 59 60 60 59 60 59 59 58 59 58 58 59 60 60 60 60 60 60 59 57 58 57 56 54 55 56 57 57 55 54 54 54 54 55 57 56 55 53 53
64 64 64 64 64 65 66 66 66 66 66 66 66 66 66 65 64 65 64 64 63 63 63 63 62 62 62 62 61 61 62 61 61 60 60 60 60 60 60 60 61 60 59 58 58 58 59 59 60 60 59 59 59 59 59 59 58 58 58 57 56 55 57 57 56 55 54 54 53 53 53 53 55 56
64 65 65 65 65 66 66 66 67 67 68 67 66 66 66 65 64 64 63 64 64 64 64 63 63 62 62 62 61 61 61 63 62 61 60 60 60 61 61 60 60 60 60 59 57 59 58 58 58 58 58 60 59 59 62 61 60 58 57 56 58 57 56 56 55 55 55 55 55 54 53 53 53 54
MSLP
1017.13 1017.21 1017.25 1017.29 1017.17 1017.13 1017.05 1017.09 1017.17 1017.09 1017.17 1017.33 1017.53 1017.69 1018.29 1018.81 1019.93 1020.73 1020.85 1020.21 1019.81 1018.77 1018.25 1018.81 1017.57 1016.93 1017.01 1017.09 1016.97 1017.21 1017.21 1017.09 1017.21 1017.37 1017.45 1017.57 1017.65 1017.65 1017.73 1017.77 1017.81 1017.89 1017.97 1018.01 1018.09 1018.13 1018.21 1018.25 1018.29 1018.33 1018.37 1018.45 1018.49 1018.57 1018.69 1018.77 1018.85 1018.89 1018.97 1019.05 1019.13 1019.17 1019.25 1019.29 1019.37 1019.49 1019.61 1019.69 1019.77 1019.85 1019.89 1019.93 1019.93 1019.97
1016.97 1017.05 1017.13 1017.13 1017.17 1016.89 1016.97 1017.01 1016.93 1017.01 1017.01 1017.25 1017.45 1017.57 1017.65 1017.97 1018.97 1019.49 1020.33 1020.05 1019.09 1018.81 1018.13 1017.89 1017.89 1017.13 1017.13 1016.97 1017.01 1016.97 1017.05 1016.89 1017.01 1017.21 1017.33 1017.45 1017.45 1017.45 1017.53 1017.61 1017.69 1017.77 1017.81 1017.85 1017.89 1017.93 1017.97 1018.01 1018.05 1018.09 1018.13 1018.17 1018.21 1018.29 1018.37 1018.45 1018.53 1018.61 1018.65 1018.73 1018.81 1018.89 1018.97 1019.05 1019.17 1019.29 1019.41 1019.49 1019.53 1019.61 1019.69 1019.73 1019.81 1019.85
1016.85 1017.01 1017.13 1017.05 1017.05 1016.81 1016.81 1016.81 1016.85 1016.89 1016.93 1017.01 1017.21 1017.41 1017.53 1017.85 1017.97 1018.57 1019.13 1020.13 1018.77 1018.09 1018.53 1017.77 1017.17 1017.21 1017.01 1016.85 1016.93 1016.93 1016.89 1016.85 1016.89 1017.05 1017.21 1017.21 1017.21 1017.29 1017.41 1017.45 1017.53 1017.65 1017.69 1017.73 1017.73 1017.77 1017.77 1017.77 1017.85 1017.89 1017.97 1018.01 1018.05 1018.09 1018.13 1018.17 1018.21 1018.25 1018.33 1018.41 1018.49 1018.57 1018.65 1018.77 1018.93 1019.05 1019.13 1019.25 1019.33 1019.37 1019.41 1019.45 1019.53 1019.61
1016.65 1016.85 1017.01 1016.97 1016.93 1016.77 1016.77 1016.77 1016.77 1016.89 1016.85 1016.85 1017.09 1017.29 1017.49 1017.65 1017.77 1017.97 1018.61 1019.37 1019.29 1017.97 1017.89 1017.53 1017.17 1016.89 1016.97 1016.89 1017.17 1017.09 1016.97 1016.69 1016.81 1016.93 1017.01 1016.97 1017.05 1017.25 1017.29 1017.29 1017.37 1017.45 1017.49 1017.57 1017.57 1017.61 1017.61 1017.61 1017.61 1017.65 1017.73 1017.77 1017.81 1017.85 1017.89 1017.89 1017.93 1017.97 1018.01 1018.09 1018.17 1018.21 1018.33 1018.45 1018.57 1018.69 1018.77 1018.85 1018.97 1019.05 1019.13 1019.17 1019.21 1019.25
1016.45 1016.65 1016.81 1016.77 1016.65 1016.57 1016.77 1016.69 1016.65 1016.77 1016.85 1016.89 1016.93 1017.09 1017.37 1017.69 1017.73 1017.93 1018.41 1019.05 1019.05 1018.13 1017.29 1017.37 1017.13 1016.73 1016.73 1017.13 1016.85 1017.17 1017.09 1017.05 1016.93 1016.85 1016.85 1016.89 1017.09 1017.13 1017.13 1017.09 1017.09 1017.17 1017.21 1017.29 1017.33 1017.33 1017.37 1017.37 1017.37 1017.37 1017.45 1017.49 1017.53 1017.57 1017.57 1017.61 1017.65 1017.73 1017.77 1017.81 1017.85 1017.89 1017.97 1018.05 1018.17 1018.29 1018.37 1018.49 1018.57 1018.65 1018.73 1018.77 1018.85 1018.89
1016.33 1016.45 1016.69 1016.69 1016.53 1016.45 1016.61 1016.57 1016.61 1016.61 1016.77 1016.89 1017.05 1017.13 1017.25 1017.49 1017.61 1017.45 1018.01 1018.45 1018.77 1018.81 1017.73 1017.45 1016.89 1016.93 1016.53 1017.17 1016.61 1017.05 1017.25 1017.17 1016.93 1017.09 1016.97 1016.85 1016.85 1016.93 1016.89 1016.97 1016.89 1016.81 1016.93 1016.97 1017.01 1017.05 1017.09 1017.13 1017.17 1017.21 1017.25 1017.25 1017.25 1017.25 1017.29 1017.33 1017.41 1017.49 1017.53 1017.57 1017.61 1017.65 1017.73 1017.77 1017.85 1017.93 1018.01 1018.09 1018.17 1018.25 1018.33 1018.37 1018.45 1018.53
1016.17 1016.37 1016.53 1016.53 1016.37 1016.33 1016.57 1016.53 1016.45 1016.41 1016.57 1016.57 1016.77 1016.89 1016.97 1017.17 1017.21 1017.25 1017.33 1017.89 1018.57 1018.65 1018.29 1017.49 1017.41 1017.05 1016.85 1016.93 1016.85 1016.69 1016.65 1016.57 1016.69 1017.05 1017.09 1016.97 1016.77 1016.69 1016.69 1016.81 1016.69 1016.57 1016.65 1016.73 1016.77 1016.81 1016.85 1016.89 1016.97 1017.01 1017.05 1017.05 1017.05 1017.01 1017.01 1017.05 1017.09 1017.17 1017.25 1017.29 1017.37 1017.45 1017.49 1017.53 1017.57 1017.61 1017.65 1017.69 1017.77 1017.85 1017.93 1018.01 1018.09 1018.17
1015.93 1016.09 1016.33 1016.25 1016.17 1016.17 1016.41 1016.41 1016.41 1016.33 1016.37 1016.53 1016.57 1016.65 1016.73 1016.81 1016.97 1016.93 1017.09 1017.21 1017.61 1017.89 1018.33 1017.53 1017.33 1016.85 1017.01 1016.81 1016.49 1016.37 1016.41 1016.65 1016.81 1016.81 1016.73 1016.61 1016.77 1016.69 1016.57 1016.61 1016.57 1016.33 1016.33 1016.41 1016.49 1016.53 1016.57 1016.65 1016.69 1016.77 1016.77 1016.81 1016.81 1016.81 1016.81 1016.81 1016.89 1016.93 1017.01 1017.05 1017.09 1017.13 1017.13 1017.17 1017.21 1017.21 1017.25 1017.29 1017.33 1017.41 1017.49 1017.57 1017.65 1017.73
1015.57 1015.73 1015.85 1015.85 1015.89 1015.97 1016.21 1016.21 1016.29 1016.21 1016.41 1016.37 1016.49 1016.61 1016.49 1016.61 1016.69 1016.77 1016.85 1016.97 1017.01 1017.45 1017.81 1017.57 1016.97 1016.77 1016.77 1016.49 1016.33 1016.25 1016.73 1016.81 1016.77 1016.73 1016.85 1016.73 1016.73 1016.69 1016.45 1016.41 1016.17 1016.09 1016.09 1016.17 1016.25 1016.33 1016.33 1016.33 1016.41 1016.49 1016.53 1016.57 1016.57 1016.61 1016.65 1016.73 1016.77 1016.77 1016.73 1016.77 1016.81 1016.77 1016.77 1016.77 1016.77 1016.81 1016.85 1016.93 1017.01 1017.05 1017.13 1017.17 1017.25 1017.33
1015.09 1015.29 1015.41 1015.45 1015.53 1015.69 1015.93 1016.01 1015.93 1015.93 1016.09 1016.13 1016.33 1016.41 1016.41 1016.37 1016.49 1016.77 1016.85 1016.85 1017.05 1017.25 1017.37 1017.33 1017.29 1016.89 1017.17 1016.97 1016.57 1016.25 1016.33 1016.77 1017.05 1016.97 1016.73 1016.65 1016.61 1016.73 1016.73 1016.41 1016.09 1015.85 1015.81 1015.97 1015.97 1016.05 1016.09 1016.09 1016.09 1016.13 1016.17 1016.17 1016.21 1016.25 1016.33 1016.41 1016.45 1016.45 1016.45 1016.49 1016.49 1016.45 1016.41 1016.41 1016.45 1016.49 1016.53 1016.61 1016.69 1016.77 1016.81 1016.85 1016.89 1016.93
1014.65 1014.77 1014.89 1015.05 1015.13 1015.33 1015.37 1015.49 1015.57 1015.65 1015.73 1015.85 1015.97 1015.97 1016.09 1016.13 1016.41 1016.57 1016.65 1016.77 1016.97 1017.13 1017.29 1017.29 1017.21 1017.21 1016.93 1016.97 1017.21 1016.37 1016.13 1016.29 1016.53 1017.01 1017.25 1017.25 1016.61 1016.49 1016.57 1016.57 1015.97 1015.69 1015.69 1015.45 1015.41 1015.45 1015.49 1015.53 1015.65 1015.69 1015.73 1015.81 1015.85 1015.97 1016.05 1016.09 1016.13 1016.09 1016.13 1016.13 1016.13 1016.13 1016.13 1016.13 1016.17 1016.21 1016.25 1016.29 1016.37 1016.45 1016.53 1016.57 1016.57 1016.61
1014.29 1014.37 1014.45 1014.53 1014.61 1014.73 1014.85 1014.93 1015.01 1015.13 1015.41 1015.45 1015.65 1015.57 1015.73 1015.93 1016.25 1016.45 1016.53 1016.73 1016.89 1017.05 1017.25 1017.29 1017.33 1017.21 1017.17 1016.93 1016.65 1016.37 1016.45 1016.77 1016.89 1016.65 1016.89 1017.37 1017.01 1016.65 1016.33 1016.21 1016.25 1015.81 1015.65 1015.77 1015.53 1015.29 1015.37 1015.45 1015.41 1015.45 1015.53 1015.61 1015.65 1015.73 1015.81 1015.89 1015.85 1015.81 1015.77 1015.77 1015.77 1015.77 1015.77 1015.81 1015.85 1015.89 1015.93 1016.01 1016.05 1016.05 1016.09 1016.13 1016.17 1016.17
1013.85 1014.01 1014.05 1014.09 1014.13 1014.21 1014.29 1014.29 1014.37 1014.45 1014.57 1014.97 1015.41 1015.33 1015.41 1015.69 1016.01 1016.17 1016.33 1016.49 1016.73 1016.97 1017.09 1017.25 1017.21 1017.33 1017.37 1017.09 1016.93 1016.97 1016.97 1017.13 1016.97 1016.37 1016.53 1016.89 1016.69 1016.65 1016.73 1016.17 1015.81 1015.81 1015.93 1015.73 1015.61 1015.53 1015.29 1015.45 1015.41 1015.37 1015.53 1015.33 1015.33 1015.45 1015.53 1015.53 1015.49 1015.45 1015.41 1015.37 1015.33 1015.33 1015.37 1015.41 1015.41 1015.49 1015.53 1015.57 1015.61 1015.61 1015.61 1015.65 1015.73 1015.77
1013.57 1013.65 1013.69 1013.65 1013.65 1013.77 1013.85 1013.93 1014.01 1014.05 1014.09 1014.09 1014.29 1014.65 1014.97 1015.29 1015.65 1015.93 1016.17 1016.37 1016.49 1016.69 1017.09 1017.13 1017.13 1017.45 1017.41 1017.01 1016.81 1016.77 1016.49 1016.17 1016.21 1016.53 1016.69 1017.17 1016.77 1016.85 1016.97 1016.65 1015.97 1015.41 1015.61 1015.89 1016.01 1015.53 1015.09 1015.33 1015.41 1015.41 1015.57 1015.13 1015.09 1015.21 1015.29 1015.21 1015.01 1014.97 1014.93 1014.93 1014.93 1014.93 1014.97 1014.97 1014.97 1015.01 1015.05 1015.05 1015.09 1015.17 1015.17 1015.21 1015.21 1015.25
1013.41 1013.37 1013.33 1013.33 1013.29 1013.33 1013.45 1013.53 1013.61 1013.69 1013.73 1013.77 1013.81 1013.89 1014.05 1014.25 1014.73 1015.49 1015.89 1016.01 1016.05 1016.37 1016.57 1016.53 1016.77 1016.89 1016.89 1016.57 1016.25 1016.25 1016.05 1016.01 1016.13 1016.29 1016.49 1016.73 1016.97 1017.25 1017.57 1017.73 1016.29 1015.29 1015.49 1015.93 1016.13 1015.81 1015.09 1015.17 1015.61 1015.41 1015.37 1015.09 1015.01 1014.97 1014.93 1014.69 1014.65 1014.61 1014.57 1014.53 1014.53 1014.57 1014.57 1014.57 1014.57 1014.57 1014.57 1014.57 1014.61 1014.65 1014.69 1014.73 1014.77 1014.81
1013.01 1013.01 1013.05 1013.01 1012.93 1012.97 1013.01 1013.13 1013.25 1013.29 1013.33 1013.45 1013.49 1013.53 1013.65 1013.85 1013.89 1014.01 1014.65 1015.37 1015.93 1016.05 1016.25 1016.45 1016.37 1016.41 1016.45 1016.13 1016.09 1016.09 1016.09 1016.01 1016.05 1016.05 1016.21 1016.45 1016.73 1017.09 1017.33 1017.25 1017.33 1015.81 1015.25 1015.85 1016.21 1016.05 1015.21 1015.09 1015.37 1015.53 1015.13 1014.81 1014.65 1014.53 1014.37 1014.29 1014.25 1014.21 1014.21 1014.21 1014.21 1014.17 1014.13 1014.09 1014.09 1014.09 1014.09 1014.09 1014.09 1014.13 1014.17 1014.21 1014.25 1014.29
1012.77 1012.61 1012.73 1012.85 1012.77 1012.57 1012.61 1012.73 1012.81 1013.01 1013.09 1013.09 1013.17 1013.25 1013.33 1013.41 1013.57 1013.81 1013.85 1013.85 1014.29 1014.77 1015.41 1015.77 1015.93 1015.77 1015.69 1015.93 1015.77 1015.45 1015.37 1015.25 1015.85 1016.01 1016.33 1016.37 1016.49 1016.57 1016.81 1016.73 1016.45 1015.69 1015.17 1015.69 1016.21 1016.37 1015.53 1015.13 1015.25 1015.41 1014.81 1014.53 1014.25 1014.17 1014.01 1013.93 1013.89 1013.85 1013.81 1013.77 1013.73 1013.69 1013.69 1013.69 1013.65 1013.65 1013.61 1013.61 1013.61 1013.61 1013.61 1013.65 1013.69 1013.73
1012.73 1012.81 1012.65 1012.65 1012.77 1012.45 1012.37 1012.41 1012.53 1012.73 1012.89 1013.05 1013.17 1013.29 1013.41 1013.53 1013.45 1013.49 1013.53 1013.65 1013.69 1013.85 1014.33 1014.81 1015.25 1015.01 1015.01 1015.25 1015.01 1014.81 1014.77 1015.33 1015.81 1016.05 1016.29 1016.13 1016.33 1016.41 1016.41 1015.85 1015.65 1015.29 1015.09 1015.77 1016.09 1016.37 1015.77 1015.21 1015.25 1015.25 1014.61 1014.17 1013.93 1013.77 1013.57 1013.53 1013.53 1013.45 1013.41 1013.37 1013.33 1013.33 1013.29 1013.29 1013.21 1013.17 1013.13 1013.17 1013.13 1013.13 1013.13 1013.17 1013.17 1013.21
1012.09 1012.37 1012.69 1012.53 1012.29 1012.25 1012.25 1012.13 1012.21 1012.53 1012.73 1012.89 1013.09 1013.25 1013.41 1013.45 1013.49 1013.53 1013.57 1013.61 1013.61 1013.77 1013.85 1014.09 1014.21 1014.29 1014.33 1014.41 1014.45 1014.49 1014.53 1014.77 1014.97 1015.17 1015.49 1015.57 1015.65 1015.69 1015.57 1015.57 1015.41 1015.37 1015.01 1015.29 1015.97 1016.69 1015.49 1014.93 1015.17 1014.73 1014.33 1013.85 1013.69 1013.37 1013.21 1013.17 1013.17 1013.13 1013.09 1013.01 1013.01 1013.01 1012.97 1012.89 1012.85 1012.81 1012.81 1012.77 1012.73 1012.69 1012.69 1012.73 1012.77 1012.77
1011.73 1011.93 1012.33 1012.69 1012.45 1011.97 1012.01 1011.85 1011.81 1011.97 1012.25 1012.65 1012.97 1013.21 1013.29 1013.41 1013.41 1013.41 1013.13 1013.05 1013.09 1013.17 1013.37 1013.53 1013.73 1013.85 1014.01 1014.09 1014.25 1014.33 1014.45 1014.57 1014.69 1014.85 1014.93 1015.17 1015.53 1015.97 1016.25 1016.37 1015.69 1015.73 1014.97 1014.93 1015.57 1015.89 1015.45 1014.77 1015.09 1014.37 1013.77 1013.69 1013.73 1013.25 1013.13 1012.89 1012.89 1012.85 1012.81 1012.77 1012.69 1012.73 1012.77 1012.73 1012.65 1012.57 1012.53 1012.53 1012.49 1012.49 1012.49 1012.45 1012.49 1012.53
1011.81 1011.97 1011.85 1011.89 1012.01 1011.69 1011.61 1011.49 1011.57 1011.69 1011.85 1012.45 1012.73 1013.01 1013.25 1013.41 1013.57 1013.57 1013.29 1013.21 1013.25 1013.29 1013.37 1013.45 1013.57 1013.73 1013.89 1014.05 1014.17 1014.29 1014.37 1014.49 1014.61 1014.97 1015.53 1015.85 1015.73 1016.25 1016.61 1016.29 1016.05 1015.73 1015.13 1014.85 1014.85 1015.21 1015.29 1014.69 1014.69 1014.53 1013.85 1013.73 1013.61 1013.33 1013.05 1012.69 1012.57 1012.61 1012.65 1012.69 1012.65 1012.61 1012.53 1012.45 1012.37 1012.29 1012.25 1012.21 1012.17 1012.09 1012.01 1011.93 1011.97 1012.13
1011.25 1011.37 1011.25 1011.17 1011.25 1011.41 1011.29 1011.09 1011.29 1011.49 1011.69 1012.29 1012.53 1012.81 1013.17 1013.61 1013.85 1013.73 1013.49 1013.45 1013.41 1013.41 1013.49 1013.61 1013.73 1013.85 1013.89 1013.93 1014.01 1014.09 1014.17 1014.33 1014.49 1014.97 1015.73 1015.37 1015.49 1016.05 1016.17 1016.45 1015.85 1015.37 1015.13 1014.81 1014.33 1015.25 1014.93 1014.37 1014.37 1014.69 1014.09 1013.69 1013.25 1013.05 1012.73 1012.57 1012.57 1012.57 1012.53 1012.45 1012.41 1012.37 1012.25 1012.17 1012.13 1012.09 1012.05 1011.97 1011.85 1011.77 1011.69 1011.69 1011.81 1011.81
1010.69 1011.01 1011.01 1010.93 1010.81 1010.81 1010.93 1010.97 1011.09 1011.25 1011.45 1011.97 1012.25 1012.57 1013.01 1013.49 1013.77 1013.49 1013.33 1013.49 1013.73 1013.81 1013.93 1013.93 1013.93 1013.93 1013.81 1013.81 1013.85 1013.85 1013.89 1014.05 1014.21 1014.33 1014.57 1014.81 1015.41 1015.93 1015.77 1015.69 1015.65 1015.89 1015.33 1014.49 1014.13 1015.25 1014.73 1014.65 1014.53 1014.65 1014.85 1014.65 1013.25 1012.81 1012.69 1012.69 1012.69 1012.57 1012.49 1012.37 1012.21 1012.13 1012.09 1012.01 1011.93 1011.81 1011.77 1011.73 1011.65 1011.53 1011.45 1011.37 1011.53 1011.57
1010.49 1010.61 1010.73 1010.65 1010.65 1010.61 1010.77 1010.93 1011.05 1011.13 1011.25 1011.65 1012.01 1012.33 1012.81 1013.25 1013.45 1012.89 1013.13 1013.21 1013.33 1013.49 1013.53 1013.61 1013.61 1013.61 1013.53 1013.61 1013.69 1013.73 1013.77 1013.85 1013.93 1014.05 1014.17 1014.37 1014.73 1015.17 1015.33 1015.37 1015.49 1015.81 1015.29 1014.33 1014.17 1014.85 1014.65 1014.49 1014.81 1014.45 1014.77 1015.33 1014.81 1013.33 1012.89 1012.85 1012.69 1012.61 1012.45 1012.37 1012.33 1012.09 1012.05 1012.01 1011.81 1011.65 1011.57 1011.53 1011.49 1011.37 1011.29 1011.29 1011.37 1011.45
1010.41 1010.61 1010.61 1010.33 1010.25 1010.57 1010.77 1010.93 1011.05 1011.13 1011.21 1011.33 1011.69 1012.05 1012.37 1012.49 1012.37 1012.53 1013.09 1013.13 1013.09 1013.37 1013.45 1013.53 1013.61 1013.65 1013.69 1013.69 1013.65 1013.69 1013.73 1013.73 1013.73 1013.73 1013.81 1013.89 1014.05 1014.45 1014.85 1015.09 1015.17 1015.17 1014.61 1013.97 1013.93 1014.85 1015.17 1014.61 1014.85 1014.57 1014.69 1014.77 1014.33 1014.01 1013.01 1012.93 1012.65 1012.57 1012.33 1012.33 1012.49 1012.25 1012.17 1012.05 1011.85 1011.65 1011.49 1011.45 1011.37 1011.33 1011.25 1011.21 1011.29 1011.33
1010.01 1010.09 1010.01 1009.89 1009.93 1010.25 1010.61 1010.93 1011.17 1011.33 1011.49 1011.61 1011.77 1012.01 1012.09 1012.25 1012.41 1012.61 1012.73 1012.93 1013.09 1013.29 1013.45 1013.61 1013.73 1013.77 1013.81 1013.81 1013.77 1013.69 1013.65 1013.57 1013.49 1013.49 1013.53 1013.57 1013.61 1013.61 1013.73 1014.13 1014.65 1014.93 1014.57 1013.69 1013.73 1014.29 1014.73 1014.73 1014.53 1014.73 1014.57 1014.69 1014.21 1013.93 1013.73 1013.13 1012.65 1012.49 1012.37 1012.33 1012.37 1012.29 1012.13 1012.09 1011.93 1011.77 1011.61 1011.49 1011.37 1011.25 1011.17 1011.17 1011.21 1011.21
1009.53 1009.41 1009.53 1009.61 1009.69 1010.17 1010.49 1010.85 1011.13 1011.33 1011.53 1011.73 1011.77 1011.89 1012.09 1012.21 1012.29 1012.37 1012.69 1012.93 1013.17 1013.37 1013.53 1013.65 1013.81 1013.73 1013.69 1013.77 1013.73 1013.65 1013.57 1013.37 1013.25 1013.25 1013.25 1013.25 1013.25 1013.21 1013.17 1013.25 1013.65 1014.01 1013.69 1013.45 1013.45 1013.65 1014.01 1014.17 1013.81 1014.21 1014.37 1014.13 1014.25 1013.89 1013.77 1013.73 1013.29 1012.69 1012.69 1012.49 1012.33 1012.17 1012.09 1012.09 1012.13 1012.01 1011.85 1011.69 1011.49 1011.25 1011.13 1011.09 1011.09 1011.09
1009.25 1009.53 1009.89 1010.13 1010.29 1010.05 1010.33 1010.65 1010.97 1011.25 1011.45 1011.61 1011.69 1011.89 1012.01 1012.13 1012.21 1012.37 1012.65 1012.89 1013.05 1013.21 1013.45 1013.57 1013.61 1013.57 1013.45 1013.45 1013.49 1013.41 1013.17 1013.09 1013.01 1013.01 1012.97 1013.01 1012.97 1013.05 1013.13 1013.13 1013.21 1013.21 1013.17 1013.13 1013.13 1013.21 1013.37 1013.69 1013.69 1013.61 1013.77 1013.93 1014.05 1014.09 1014.01 1013.25 1013.21 1013.09 1013.13 1012.61 1012.37 1012.41 1012.33 1012.21 1012.25 1012.13 1011.97 1011.77 1011.61 1011.41 1011.37 1011.33 1011.21 1011.13
1009.13 1009.33 1009.73 1010.05 1010.05 1010.09 1010.37 1010.61 1010.89 1011.21 1011.41 1011.53 1011.65 1011.85 1012.05 1012.13 1012.33 1012.49 1012.61 1012.77 1012.97 1013.25 1013.29 1013.29 1013.29 1013.25 1013.13 1012.97 1012.81 1012.73 1012.77 1012.73 1012.77 1012.89 1012.89 1012.81 1012.89 1012.93 1012.97 1013.01 1013.01 1012.97 1012.89 1012.77 1012.77 1012.85 1013.05 1013.25 1013.37 1013.29 1013.37 1013.49 1013.85 1013.77 1013.77 1013.65 1013.41 1013.29 1013.05 1013.01 1012.97 1012.73 1012.45 1012.29 1012.29 1012.29 1012.17 1011.93 1011.89 1011.81 1011.77 1011.69 1011.65 1011.45
1009.25 1009.45 1009.77 1009.81 1009.97 1010.25 1010.45 1010.77 1011.05 1011.17 1011.21 1011.37 1011.65 1011.97 1012.21 1012.21 1012.25 1012.37 1012.53 1012.65 1012.85 1012.93 1012.93 1012.97 1013.05 1012.89 1012.73 1012.69 1012.53 1012.49 1012.57 1012.81 1012.93 1012.85 1013.05 1013.13 1013.21 1013.13 1013.21 1013.21 1013.05 1012.81 1012.69 1012.65 1012.61 1012.61 1012.69 1012.85 1012.97 1013.09 1013.25 1013.37 1013.49 1013.61 1013.53 1013.53 1013.49 1013.29 1013.13 1013.25 1013.05 1012.69 1012.57 1012.45 1012.33 1012.25 1012.25 1012.21 1012.17 1012.13 1012.01 1011.85 1011.77 1011.69
1009.53 1009.73 1009.77 1009.81 1010.01 1010.21 1010.41 1010.61 1010.77 1010.97 1011.17 1011.53 1011.81 1011.97 1011.97 1012.01 1012.01 1012.05 1012.17 1012.29 1012.41 1012.45 1012.53 1012.57 1012.53 1012.45 1012.41 1012.33 1012.45 1012.65 1012.65 1012.77 1012.69 1012.69 1012.89 1013.05 1013.17 1013.17 1013.29 1013.41 1013.49 1013.29 1012.89 1012.65 1012.49 1012.41 1012.45 1012.57 1012.69 1012.85 1013.33 1013.37 1013.33 1013.33 1013.29 1013.33 1013.53 1013.53 1013.29 1013.09 1013.09 1013.41 1013.01 1012.73 1012.53 1012.49 1012.41 1012.33 1012.21 1012.17 1012.13 1012.09 1012.01 1011.85
1009.45 1009.65 1009.77 1010.01 1010.21 1010.45 1010.81 1010.97 1011.05 1011.17 1011.25 1011.33 1011.53 1011.65 1011.69 1011.73 1011.77 1011.73 1011.73 1011.77 1011.93 1011.97 1012.01 1012.13 1012.17 1012.25 1012.29 1012.49 1012.45 1012.41 1012.49 1012.53 1012.53 1012.57 1012.77 1013.01 1013.17 1013.21 1013.37 1013.65 1013.73 1013.53 1013.33 1013.05 1012.85 1012.69 1012.61 1012.69 1012.77 1012.85 1012.97 1013.13 1013.37 1013.33 1013.29 1013.49 1013.49 1013.53 1013.45 1013.13 1013.09 1013.05 1012.93 1012.93 1012.81 1012.65 1012.49 1012.45 1012.41 1012.37 1012.33 1012.29 1012.33 1012.25
1009.33 1009.49 1009.81 1010.13 1010.33 1010.49 1010.77 1011.01 1011.13 1011.17 1011.21 1011.25 1011.29 1011.45 1011.57 1011.61 1011.65 1011.69 1011.73 1011.85 1011.81 1011.81 1011.97 1012.13 1012.17 1012.25 1012.25 1012.33 1012.25 1012.33 1012.45 1012.49 1012.57 1012.57 1012.73 1012.81 1012.97 1013.21 1013.33 1013.57 1013.65 1013.61 1013.57 1013.53 1013.37 1013.21 1013.13 1013.05 1012.93 1012.97 1013.05 1013.05 1013.05 1013.13 1013.37 1013.61 1013.57 1013.53 1013.53 1013.37 1013.21 1013.21 1012.93 1012.81 1012.81 1012.81 1012.61 1012.53 1012.57 1012.45 1012.41 1012.45 1012.49 1012.45
1009.33 1009.57 1009.85 1010.01 1010.25 1010.45 1010.69 1010.93 1011.05 1011.09 1011.09 1011.13 1011.17 1011.13 1011.17 1011.25 1011.37 1011.45 1011.45 1011.45 1011.49 1011.53 1011.73 1011.81 1011.97 1012.05 1012.09 1012.21 1012.25 1012.33 1012.41 1012.53 1012.53 1012.57 1012.61 1012.89 1012.97 1013.13 1013.37 1013.53 1013.53 1013.45 1013.53 1013.57 1013.45 1013.37 1013.33 1013.37 1013.29 1013.25 1013.25 1013.25 1013.21 1013.25 1013.33 1013.45 1013.57 1013.45 1013.45 1013.37 1013.37 1013.29 1013.05 1012.93 1012.85 1012.85 1012.77 1012.77 1012.69 1012.49 1012.45 1012.37 1012.45 1012.49
1009.53 1009.69 1009.93 1010.01 1010.09 1010.21 1010.37 1010.57 1010.69 1010.73 1010.81 1010.85 1010.93 1010.97 1010.93 1010.97 1011.09 1011.17 1011.21 1011.21 1011.29 1011.45 1011.53 1011.61 1011.65 1011.73 1011.85 1012.01 1012.09 1012.17 1012.29 1012.41 1012.49 1012.57 1012.61 1012.69 1012.85 1012.93 1013.13 1013.33 1013.41 1013.37 1013.45 1013.45 1013.41 1013.21 1013.21 1013.49 1013.53 1013.69 1013.69 1013.69 1013.61 1013.33 1013.21 1013.29 1013.37 1013.45 1013.45 1013.45 1013.41 1013.41 1013.21 1013.01 1012.93 1012.85 1012.77 1012.69 1012.65 1012.57 1012.53 1012.41 1012.37 1012.49
1009.25 1009.37 1009.57 1009.73 1009.85 1009.93 1010.13 1010.13 1010.17 1010.25 1010.41 1010.49 1010.61 1010.69 1010.89 1010.85 1010.77 1010.85 1010.93 1010.81 1011.01 1011.17 1011.29 1011.41 1011.49 1011.57 1011.65 1011.77 1011.85 1011.93 1012.09 1012.21 1012.37 1012.45 1012.49 1012.53 1012.65 1012.85 1012.89 1012.97 1013.01 1013.13 1013.17 1013.09 1013.13 1013.09 1013.13 1013.33 1013.49 1013.73 1014.01 1014.05 1014.13 1014.01 1013.53 1013.17 1013.25 1013.21 1013.41 1013.41 1013.33 1013.33 1013.17 1013.05 1012.93 1012.89 1012.77 1012.65 1012.69 1012.65 1012.57 1012.49 1012.29 1012.33
1009.01 1009.05 1009.17 1009.37 1009.41 1009.57 1009.73 1009.77 1009.89 1009.97 1010.05 1010.13 1010.21 1010.29 1010.41 1010.45 1010.37 1010.33 1010.29 1010.37 1010.61 1010.77 1010.89 1011.01 1011.17 1011.25 1011.37 1011.49 1011.61 1011.73 1011.93 1012.13 1012.33 1012.33 1012.37 1012.37 1012.45 1012.65 1012.73 1012.81 1012.77 1012.73 1012.93 1012.89 1012.85 1012.93 1013.05 1013.25 1013.45 1013.57 1013.85 1014.05 1014.09 1014.01 1013.65 1013.21 1013.17 1013.09 1013.13 1013.17 1013.17 1013.09 1013.05 1013.05 1012.97 1012.85 1012.73 1012.73 1012.61 1012.53 1012.49 1012.45 1012.25 1012.13
1008.85 1008.85 1008.97 1008.97 1009.05 1009.13 1009.21 1009.33 1009.45 1009.61 1009.69 1009.69 1009.81 1009.89 1009.89 1009.89 1009.89 1009.93 1009.89 1010.17 1010.33 1010.45 1010.61 1010.77 1010.85 1010.97 1011.09 1011.21 1011.45 1011.73 1011.85 1011.89 1011.97 1012.09 1012.09 1012.17 1012.45 1012.53 1012.45 1012.53 1012.61 1012.61 1012.77 1012.81 1012.85 1012.85 1012.93 1013.09 1013.21 1013.45 1013.65 1013.85 1013.97 1014.01 1013.81 1013.21 1013.09 1012.89 1012.81 1012.89 1013.01 1012.97 1012.93 1012.97 1012.93 1012.89 1012.73 1012.69 1012.65 1012.49 1012.49 1012.41 1012.21 1012.17
1008.49 1008.61 1008.69 1008.77 1008.73 1008.77 1008.89 1008.93 1009.05 1009.21 1009.25 1009.33 1009.41 1009.49 1009.53 1009.57 1009.65 1009.73 1009.89 1009.93 1010.01 1010.17 1010.37 1010.53 1010.65 1010.73 1010.89 1011.05 1011.21 1011.45 1011.69 1011.89 1011.97 1011.93 1011.89 1012.01 1012.01 1012.13 1012.29 1012.41 1012.49 1012.53 1012.73 1012.85 1012.89 1012.89 1012.97 1013.13 1013.05 1013.17 1013.37 1013.57 1013.69 1013.49 1013.33 1013.37 1013.09 1012.61 1012.57 1012.61 1012.61 1012.77 1012.89 1012.81 1012.81 1012.81 1012.81 1012.65 1012.49 1012.53 1012.49 1012.49 1012.41 1012.41
1008.21 1008.21 1008.29 1008.41 1008.45 1008.49 1008.53 1008.57 1008.69 1008.73 1008.81 1008.81 1008.89 1008.89 1009.09 1009.25 1009.37 1009.53 1009.65 1009.73 1009.81 1009.93 1010.05 1010.17 1010.29 1010.53 1010.73 1010.85 1011.05 1011.21 1011.29 1011.37 1011.49 1011.53 1011.65 1011.77 1011.73 1011.81 1012.01 1012.17 1012.37 1012.49 1012.81 1012.85 1012.93 1012.93 1012.97 1012.93 1012.93 1012.89 1012.97 1012.93 1012.69 1012.65 1012.77 1012.81 1012.65 1012.45 1012.37 1012.33 1012.37 1012.29 1012.33 1012.61 1012.57 1012.57 1012.57 1012.57 1012.61 1012.53 1012.29 1012.29 1012.13 1012.33
1008.01 1008.09 1008.05 1008.05 1008.21 1008.29 1008.37 1008.37 1008.33 1008.33 1008.37 1008.33 1008.41 1008.45 1008.57 1008.73 1008.97 1009.17 1009.25 1009.37 1009.53 1009.77 1009.93 1009.97 1010.13 1010.33 1010.53 1010.69 1010.85 1010.93 1011.13 1011.21 1011.33 1011.41 1011.53 1011.65 1011.73 1011.73 1011.85 1012.05 1012.25 1012.41 1012.61 1012.81 1012.85 1012.85 1012.77 1012.45 1012.17 1012.05 1012.17 1012.37 1012.57 1012.65 1012.77 1012.89 1012.81 1012.29 1012.05 1011.81 1011.89 1012.01 1012.01 1012.09 1012.25 1012.41 1012.45 1012.49 1012.53 1012.49 1012.41 1012.25 1012.25 1012.13
1007.77 1007.85 1007.85 1007.89 1008.01 1008.01 1008.05 1008.09 1008.05 1008.09 1008.05 1008.01 1008.05 1008.13 1008.29 1008.45 1008.57 1008.65 1008.93 1009.09 1009.29 1009.45 1009.61 1009.85 1010.05 1010.21 1010.37 1010.49 1010.61 1010.73 1010.89 1011.01 1011.17 1011.33 1011.45 1011.57 1011.69 1011.77 1011.85 1011.97 1012.17 1012.33 1012.57 1012.65 1012.61 1012.49 1012.05 1012.01 1012.13 1012.17 1012.33 1012.49 1012.65 1012.97 1013.13 1012.93 1012.85 1012.37 1012.05 1011.77 1011.61 1011.69 1011.85 1011.97 1012.09 1012.17 1012.25 1012.29 1012.37 1012.49 1012.33 1012.33 1012.37 1012.21
1007.41 1007.53 1007.57 1007.57 1007.61 1007.65 1007.69 1007.69 1007.61 1007.65 1007.61 1007.65 1007.73 1007.81 1008.09 1008.33 1008.49 1008.69 1008.85 1009.05 1009.17 1009.37 1009.57 1009.73 1009.85 1009.97 1010.05 1010.21 1010.37 1010.53 1010.73 1010.85 1010.97 1011.17 1011.29 1011.45 1011.57 1011.69 1011.85 1011.89 1011.97 1012.01 1012.17 1012.21 1012.17 1012.17 1012.01 1011.93 1012.01 1012.21 1012.33 1012.45 1012.49 1012.57 1012.77 1012.53 1012.53 1012.49 1012.29 1011.89 1011.65 1011.61 1011.77 1011.85 1011.93 1012.01 1012.09 1012.17 1012.17 1012.13 1012.17 1012.25 1012.41 1012.41
1006.97 1007.09 1007.13 1007.17 1007.29 1007.33 1007.29 1007.25 1007.25 1007.21 1007.29 1007.37 1007.45 1007.65 1007.89 1008.13 1008.41 1008.45 1008.61 1008.81 1009.01 1009.21 1009.33 1009.49 1009.65 1009.81 1009.97 1010.05 1010.21 1010.41 1010.53 1010.57 1010.77 1010.97 1011.09 1011.25 1011.41 1011.45 1011.57 1011.73 1011.81 1011.89 1011.97 1012.05 1012.09 1012.01 1011.89 1011.89 1011.89 1012.09 1012.37 1012.37 1012.33 1012.53 1012.45 1012.37 1012.41 1012.21 1012.13 1011.89 1011.69 1011.65 1011.57 1011.69 1011.77 1011.85 1011.89 1011.89 1012.01 1012.09 1012.13 1012.13 1012.09 1012.09
1006.57 1006.57 1006.65 1006.69 1006.77 1006.85 1006.89 1006.85 1006.89 1006.93 1007.01 1007.13 1007.33 1007.49 1007.69 1007.89 1008.09 1008.29 1008.49 1008.61 1008.81 1008.97 1009.13 1009.29 1009.49 1009.61 1009.69 1009.85 1010.09 1010.29 1010.33 1010.33 1010.53 1010.69 1010.81 1011.01 1011.17 1011.33 1011.41 1011.53 1011.69 1011.77 1011.77 1011.77 1011.93 1011.85 1011.81 1011.77 1011.77 1011.85 1011.93 1011.85 1012.01 1012.05 1011.89 1011.97 1011.93 1011.89 1011.85 1011.73 1011.37 1011.33 1011.57 1011.65 1011.65 1011.61 1011.69 1011.69 1011.73 1011.89 1011.89 1011.89 1011.89 1011.93
Wind_Speed
5 5 5 6 6 5 3 3 4 5 4 5 6 6 7 6 5 3 3 3 4 2 4 3 3 4 4 5 4 5 6 7 7 6 6 6 5 9 12 12 12 12 12 12 12 13 14 15 16 16 16 16 16 15 16 17 16 16 16 17 17 18 17 15 12 12 12 14 14 14 14 14 14 14
5 5 5 5 5 4 4 4 3 4 5 5 6 6 5 6 7 5 5 5 4 3 2 3 3 1 3 4 4 4 6 8 9 6 6 6 6 10 13 13 13 13 13 12 12 12 14 15 16 16 16 16 16 15 16 16 17 17 17 17 17 18 17 15 13 13 13 13 14 14 14 15 15 15
6 5 6 5 5 4 5 4 3 3 4 5 5 5 5 5 5 6 4 2 3 3 4 5 3 3 4 4 4 3 4 6 9 6 6 7 10 12 10 13 13 13 13 13 13 13 14 14 15 16 15 14 14 14 14 14 15 16 17 17 18 18 17 15 14 13 13 14 14 15 15 15 15 15
6 6 7 6 6 5 4 4 4 5 4 4 5 5 5 5 4 5 4 4 5 3 5 4 4 4 4 4 5 5 4 5 11 6 7 8 10 7 6 10 13 13 13 13 13 13 14 14 14 15 15 14 14 14 14 14 15 15 16 17 18 16 15 15 14 14 14 14 15 16 16 16 16 16
5 6 6 6 6 4 5 5 5 5 5 4 5 4 5 5 3 4 4 4 5 4 2 3 5 3 4 3 5 6 5 4 5 6 6 6 5 6 6 7 11 14 14 15 14 15 15 15 15 16 16 15 15 15 15 15 15 16 15 15 16 16 15 15 15 15 15 16 16 17 17 17 17 16
7 6 7 6 6 5 6 5 5 5 5 5 5 5 5 5 6 5 5 5 4 6 3 3 2 2 4 5 4 7 6 6 4 6 6 4 5 6 6 6 7 13 15 16 16 16 16 15 15 15 16 16 16 16 16 16 16 15 15 15 15 15 15 15 15 16 16 16 17 17 18 18 18 17
7 7 7 7 7 5 5 6 5 4 5 5 6 6 5 6 6 5 5 4 4 5 5 3 2 3 3 6 5 5 5 6 5 5 5 6 5 5 5 6 6 9 14 16 16 16 16 16 15 15 16 16 16 16 16 16 15 15 15 15 15 15 15 15 16 16 17 17 18 18 18 18 18 18
9 9 7 8 7 6 7 6 6 5 5 5 5 5 5 5 5 5 5 5 5 5 5 3 4 3 4 4 3 4 4 5 4 5 5 3 4 5 5 6 6 8 13 15 16 16 16 16 16 16 16 16 16 16 16 16 15 15 15 15 15 15 15 16 16 17 17 17 18 18 19 19 19 19
10 9 9 9 7 7 8 7 6 6 7 6 6 6 6 6 5 4 5 6 3 4 5 4 2 1 3 3 3 3 4 3 3 2 4 5 5 5 4 4 6 8 11 13 14 15 16 16 16 15 15 15 16 16 16 15 15 15 15 15 16 16 16 16 17 17 17 17 17 18 18 19 19 19
11 10 10 9 8 8 9 8 7 7 8 7 7 7 6 6 5 5 5 5 5 4 5 5 2 0 2 1 2 2 4 3 3 3 4 3 4 4 6 6 6 5 5 5 7 10 12 14 17 16 16 16 17 17 16 16 16 16 16 16 16 17 17 17 17 17 17 17 17 17 17 18 19 19
11 11 11 10 9 9 9 9 9 8 8 7 7 8 8 7 6 6 6 5 6 5 4 3 3 3 3 3 4 4 2 3 3 4 2 3 3 3 5 6 5 4 6 7 10 10 10 11 10 13 16 17 17 16 16 15 16 16 16 16 17 17 17 17 17 17 17 17 17 17 17 17 18 19
11 11 11 11 10 10 9 9 8 8 9 7 7 7 6 6 7 7 6 5 5 5 4 5 5 4 5 3 3 1 1 1 1 2 4 5 5 6 3 5 5 3 3 5 5 6 6 6 8 9 10 13 15 15 14 15 16 17 17 17 17 17 17 18 18 18 17 17 17 17 17 18 18 18
12 11 11 11 10 10 11 12 11 10 9 8 8 7 7 7 7 7 6 6 6 5 5 5 3 3 5 5 5 4 3 5 7 3 3 3 4 4 5 6 4 5 6 5 4 4 5 5 6 5 5 7 9 10 13 12 15 17 17 18 18 18 18 18 18 18 18 18 18 19 18 18 18 18
12 13 12 11 16 17 17 15 16 14 15 14 10 8 8 8 7 7 7 6 6 6 6 6 6 5 6 6 6 6 5 4 1 0 0 2 5 3 5 5 5 3 3 3 5 6 3 4 5 3 5 6 4 5 5 8 10 13 16 18 18 18 18 19 19 19 19 19 19 19 19 19 19 19
12 12 13 12 15 16 16 15 19 18 18 17 15 13 13 11 9 8 7 7 7 7 7 7 6 6 7 8 6 7 5 3 4 3 3 5 2 2 2 5 6 2 4 3 2 5 2 3 5 5 5 6 5 5 7 12 14 16 16 16 16 17 18 18 18 19 19 19 19 19 19 19 19 19
12 13 13 12 10 11 12 12 13 17 18 17 17 17 16 15 15 12 10 8 7 6 7 6 7 7 8 7 6 5 3 4 3 3 3 3 3 3 4 3 4 3 1 3 2 6 3 2 4 5 6 6 6 7 10 14 15 15 16 16 16 17 17 18 18 18 19 19 19 19 19 19 19 19
12 12 12 12 10 10 16 13 11 9 11 16 18 18 18 16 15 14 16 14 11 9 8 8 8 9 6 6 5 5 4 3 3 3 3 3 3 4 5 6 5 6 2 1 2 5 5 3 5 6 7 7 7 7 10 15 15 15 16 16 17 17 17 18 18 18 18 18 18 18 18 18 18 19
7 6 9 11 10 10 10 10 11 9 10 9 10 10 8 6 10 14 16 16 16 12 9 9 9 7 5 6 5 4 3 4 3 3 4 4 4 5 7 5 6 3 1 4 1 4 5 4 6 8 7 7 8 7 11 14 15 16 16 16 16 16 17 17 17 18 18 17 18 18 18 18 18 18
11 11 9 9 11 10 10 9 10 10 9 9 8 7 7 8 7 6 7 7 7 7 5 8 8 7 7 5 4 3 2 3 4 4 4 5 5 3 1 2 3 4 3 2 1 7 4 2 5 8 7 7 7 7 9 13 15 16 16 17 16 16 16 17 17 17 17 17 17 18 18 18 18 18
10 9 10 12 12 10 11 12 16 14 9 8 8 8 7 7 6 6 6 8 7 7 7 6 6 5 4 5 4 3 3 3 2 3 1 0 0 0 4 6 3 4 2 4 4 5 6 4 7 9 6 5 7 6 6 9 13 14 15 15 16 15 14 14 15 16 16 16 16 16 16 16 16 15
7 8 8 7 7 10 10 13 16 16 13 9 9 8 8 7 6 7 4 3 5 5 6 6 6 6 6 6 5 5 5 4 2 2 0 4 2 3 5 6 4 6 3 4 6 5 7 3 6 8 7 5 6 6 6 5 8 11 12 12 12 12 13 13 13 14 14 14 14 14 15 16 15 13
9 7 14 11 7 4 8 13 17 15 12 9 9 9 8 7 7 6 3 3 3 4 4 4 4 5 6 8 8 7 8 8 5 5 7 4 3 5 5 8 8 5 2 4 5 2 7 3 2 4 5 5 5 5 5 5 3 3 5 7 9 10 10 10 10 10 11 12 12 13 13 12 10 7
10 9 10 13 10 9 8 12 13 14 11 9 8 8 8 8 8 8 7 6 5 4 3 3 3 4 6 5 5 6 9 9 8 6 6 3 4 6 8 7 6 6 3 3 2 4 4 3 1 1 4 7 6 4 5 2 2 4 6 7 8 10 11 12 11 10 10 10 11 11 10 10 6 4
9 11 11 12 15 15 12 13 13 13 12 9 6 6 7 7 9 7 6 5 5 5 6 5 5 5 4 4 4 4 3 5 6 7 6 6 6 7 7 6 5 7 3 3 2 3 2 1 3 1 3 5 6 1 2 5 4 4 5 6 6 6 6 8 8 10 11 9 7 7 8 7 4 3
10 9 10 8 15 15 13 12 12 11 11 8 6 7 7 8 4 5 5 5 7 5 4 3 3 4 3 4 4 4 5 5 5 6 6 6 6 6 6 6 6 7 5 5 5 1 4 1 4 1 3 3 5 6 5 4 4 5 5 4 4 5 4 6 5 6 7 7 6 5 6 5 6 5
9 10 9 8 12 17 15 14 12 11 9 8 5 6 6 6 7 5 5 4 4 5 4 4 4 5 5 5 5 5 5 5 6 5 5 6 6 7 7 7 7 7 7 4 7 6 6 5 6 5 3 2 6 6 8 7 4 2 3 4 5 5 5 6 6 6 5 5 5 5 6 5 4 8
10 7 8 8 15 15 14 13 13 11 11 7 5 7 10 10 10 7 5 4 5 4 5 5 6 6 6 5 5 5 5 6 5 5 5 5 5 6 6 5 5 8 7 3 5 6 6 5 3 4 6 5 7 7 7 6 2 2 5 6 5 5 5 4 4 5 4 5 5 7 7 3 3 4
6 3 3 3 10 14 14 12 11 10 9 7 10 10 10 10 8 5 5 5 6 5 5 6 7 6 5 5 5 6 6 6 6 5 4 4 4 4 4 3 4 6 6 6 5 7 7 6 5 6 7 7 6 6 6 3 3 4 5 4 5 3 4 4 4 3 4 5 4 5 4 5 5 5
3 5 7 8 11 10 11 12 10 8 9 12 10 10 9 9 5 5 5 6 5 6 7 7 7 6 7 7 7 5 5 4 2 2 2 3 3 3 4 4 4 4 5 5 5 6 6 7 7 5 4 2 3 4 4 6 5 4 4 4 2 3 4 3 3 4 4 4 5 5 6 5 5 5
8 10 11 11 9 8 7 6 5 5 7 9 9 7 8 5 6 6 6 6 7 8 7 7 7 7 6 5 5 5 4 4 5 4 2 3 2 2 1 1 3 3 3 3 3 4 5 5 5 4 4 3 3 4 4 5 2 3 3 2 4 1 2 5 5 4 5 5 3 4 4 5 5 4
6 8 7 6 7 6 9 9 9 7 8 6 6 6 6 6 6 6 7 7 8 8 7 7 6 5 5 3 3 4 4 5 5 4 4 4 3 1 1 2 2 5 5 3 2 3 1 1 0 2 2 2 2 3 3 2 1 3 2 2 2 1 3 4 5 5 3 4 1 2 3 4 5 5
6 6 6 7 5 4 4 3 3 4 5 6 5 6 5 6 6 8 11 10 6 6 5 5 4 3 3 4 5 4 4 5 2 4 4 4 3 2 3 1 1 2 3 2 4 5 6 4 4 3 2 1 1 0 1 1 1 2 4 1 1 1 2 3 4 4 4 2 2 2 3 4 5 4
4 5 5 5 5 5 5 5 5 6 6 5 5 6 6 6 6 6 5 7 7 6 5 6 6 5 5 5 4 4 4 3 4 3 4 2 4 2 2 2 2 1 0 1 1 3 4 4 4 3 3 3 1 0 1 0 1 1 2 2 2 3 4 4 3 4 4 2 1 1 1 3 4 3
5 5 5 5 6 6 6 7 7 7 6 6 6 5 5 6 6 6 6 6 6 5 6 6 5 6 5 5 4 5 5 3 4 3 4 3 2 2 3 2 2 2 2 2 2 2 2 2 3 4 3 2 2 1 1 2 0 1 2 2 2 1 3 4 3 3 2 0 1 2 4 4 2 3
5 5 6 6 6 6 6 6 6 6 6 6 5 5 5 5 7 7 6 7 6 6 6 6 6 6 5 5 5 6 6 6 4 3 2 2 3 4 4 4 4 2 4 5 4 2 2 4 4 2 1 2 2 2 2 1 1 1 1 2 2 2 3 2 3 4 3 4 2 2 3 2 3 2
6 6 6 6 6 6 6 6 6 5 6 6 6 6 5 6 6 7 7 7 6 6 6 6 6 6 6 6 6 6 6 4 5 3 2 1 1 2 4 6 3 2 3 5 5 3 2 4 5 4 3 1 0 1 2 3 2 2 2 1 2 1 2 3 2 2 3 3 1 2 2 2 5 2
5 5 6 6 6 6 7 6 6 6 6 6 7 7 7 7 7 7 8 6 7 6 7 6 6 6 6 6 6 5 5 6 5 4 4 2 3 5 5 3 3 2 2 4 5 3 3 2 3 5 4 3 2 1 3 2 5 6 3 2 2 2 2 2 2 4 3 1 3 1 1 1 4 4
5 4 5 5 6 6 6 6 6 7 7 7 7 7 7 7 6 7 6 6 7 6 6 7 6 6 6 6 7 6 5 6 5 6 3 3 5 4 4 3 2 1 1 2 3 4 3 3 3 3 3 3 2 2 2 2 2 3 7 4 3 3 1 1 2 3 4 2 2 3 0 2 5 4
6 6 5 5 5 5 6 6 6 7 7 7 7 7 7 7 6 5 6 7 7 7 6 6 7 6 6 6 6 6 6 6 6 5 4 5 5 3 2 2 3 1 2 3 3 4 2 2 4 5 5 5 4 2 3 1 3 2 4 9 4 2 3 4 4 4 3 3 3 2 3 2 2 3
6 5 6 5 6 5 6 5 6 6 7 7 7 7 7 7 7 6 7 6 7 7 7 7 7 6 5 6 6 6 6 6 6 5 5 4 4 5 5 4 4 3 3 4 5 5 4 5 5 6 6 7 7 5 3 4 3 3 3 6 10 8 5 5 5 2 3 3 1 4 6 4 3 3
5 6 6 5 5 5 5 6 6 6 7 7 7 7 7 7 7 7 7 7 7 7 7 6 6 6 6 6 6 7 6 5 4 4 3 3 4 4 4 4 3 3 3 3 5 5 6 7 8 10 6 3 2 1 1 2 5 5 5 5 7 12 9 7 4 3 3 0 1 3 3 3 3 3
6 7 6 6 7 7 7 7 6 6 7 7 7 7 7 7 7 8 8 8 7 6 6 6 6 6 6 6 6 5 6 6 5 3 3 5 5 4 4 4 4 3 4 6 6 7 7 3 2 0 4 4 3 1 4 5 6 6 5 5 4 6 9 8 5 4 3 2 0 1 2 2 1 2
7 7 7 7 7 7 7 7 7 7 7 6 7 7 7 7 6 7 7 7 6 6 6 6 6 6 6 6 6 6 6 5 5 5 4 4 5 6 5 5 6 6 6 6 6 4 5 4 2 1 4 5 4 5 6 7 5 5 5 5 4 2 3 4 4 2 2 3 4 4 2 1 0 1
7 8 7 7 7 7 7 7 7 6 6 6 6 6 7 7 7 7 7 7 7 7 6 6 6 6 6 6 6 5 6 6 5 5 5 5 6 6 6 6 5 5 6 5 5 5 5 5 3 2 4 6 5 5 7 6 6 7 6 5 2 2 5 4 2 2 2 2 4 4 3 4 4 5
7 7 7 7 7 7 7 7 6 6 6 6 6 6 6 6 7 7 6 6 7 7 7 7 7 7 6 6 6 6 6 5 5 5 5 5 5 6 6 6 6 6 6 6 4 4 4 4 2 1 3 4 3 6 7 6 7 5 4 4 6 4 3 3 4 6 5 5 4 4 2 2 2 2
Wind_Direction
215 217 207 204 209 217 216 236 214 191 174 175 171 170 167 170 152 188 218 257 217 276 206 213 271 217 221 216 202 196 207 208 193 192 195 199 204 213 218 221 224 225 228 228 226 224 228 230 231 233 234 236 238 239 238 237 237 237 234 234 234 234 236 239 234 227 218 214 215 218 223 226 228 229
212 217 217 211 213 217 208 223 226 188 178 171 179 187 176 160 173 174 177 244 215 236 268 216 242 250 224 211 207 196 210 208 190 194 197 201 211 217 217 222 225 227 227 228 228 226 227 230 232 233 235 236 237 237 238 239 239 239 239 239 236 237 237 237 236 229 225 221 219 218 221 225 228 232
204 211 219 213 215 206 210 214 218 210 179 182 178 180 161 187 167 159 143 172 282 187 211 243 229 203 216 205 204 209 211 203 193 195 201 209 216 216 220 222 225 227 230 230 231 230 230 230 232 235 237 239 240 238 236 237 237 236 239 241 240 240 239 237 235 231 227 224 224 223 222 223 227 230
204 204 214 215 214 212 208 219 208 200 207 178 174 175 177 188 176 149 145 163 250 243 217 229 238 203 196 202 194 211 209 205 196 199 205 215 220 216 226 225 227 227 228 230 232 234 234 234 234 235 236 236 238 238 237 236 236 236 233 236 241 242 238 235 234 231 229 226 224 224 226 226 226 228
210 205 212 217 217 197 202 212 206 197 194 184 182 172 169 183 188 162 162 178 248 293 242 231 238 216 171 199 203 201 208 206 209 219 218 216 213 216 222 227 224 225 226 227 230 232 234 234 234 234 234 235 236 237 238 238 238 238 238 235 234 235 235 233 231 229 229 228 226 225 226 228 229 228
223 206 211 221 218 196 203 202 195 194 188 185 178 188 183 193 201 200 161 203 199 256 318 297 275 222 194 203 195 193 201 225 211 216 226 220 215 219 222 226 232 222 224 226 228 232 234 236 236 236 238 237 236 237 237 239 240 239 239 240 239 235 233 232 232 230 229 228 229 228 228 228 229 230
215 211 211 218 217 203 205 208 206 191 197 194 186 191 189 197 207 198 194 164 206 234 259 245 273 232 208 199 210 208 210 217 197 211 225 223 222 227 220 223 235 226 223 227 229 232 235 237 236 237 238 240 241 241 240 239 239 238 239 240 240 239 238 236 235 234 232 230 229 229 230 230 230 230
209 212 211 218 215 210 206 209 206 205 196 198 202 202 198 192 202 200 190 194 179 197 220 276 210 246 187 238 210 198 203 207 202 210 235 239 236 233 223 222 230 230 222 225 228 232 235 237 238 238 239 241 243 243 243 242 240 239 239 240 240 240 240 239 238 236 236 234 233 232 231 230 231 232
210 212 213 216 211 209 210 211 209 202 202 203 200 211 211 204 198 190 188 202 183 166 200 247 264 267 252 232 229 173 173 226 221 241 235 239 242 253 250 245 241 246 236 229 230 234 238 239 239 240 240 240 242 245 247 247 246 244 243 241 241 241 241 241 241 240 238 238 236 235 234 233 232 232
213 215 215 215 210 209 208 210 208 204 206 202 200 208 211 212 203 196 204 196 196 189 210 196 262 312 252 281 266 208 166 157 207 265 262 270 248 244 265 251 244 240 230 226 231 237 242 244 242 240 240 239 240 242 243 243 244 246 246 244 243 243 243 243 243 243 242 241 240 238 237 235 235 234
213 215 216 215 211 212 212 210 207 204 205 203 207 205 206 206 200 210 210 194 187 190 203 240 221 241 257 203 240 264 196 173 174 198 241 289 275 231 223 258 254 235 242 230 225 222 216 223 227 235 237 241 242 244 245 245 246 248 248 247 246 246 246 247 247 247 245 244 243 241 240 240 239 238
212 213 216 216 212 212 211 211 210 202 204 202 207 208 203 198 197 207 210 199 201 206 211 213 231 218 242 258 257 279 145 196 276 205 191 238 272 275 250 223 251 276 231 245 238 233 232 244 239 245 245 244 245 246 248 249 249 250 250 249 248 248 248 248 248 248 247 246 245 243 241 240 240 240
212 214 215 219 219 214 213 211 209 205 202 196 204 208 198 199 196 207 206 201 195 211 206 236 234 235 236 236 221 233 224 209 224 222 157 225 242 259 299 288 246 236 256 266 266 261 214 234 240 232 245 248 238 245 239 249 250 249 250 249 248 248 249 249 249 249 248 247 245 243 242 241 241 240
214 215 215 216 218 219 219 215 216 212 209 201 200 195 192 192 192 198 201 202 201 196 204 220 214 222 231 227 215 212 221 214 170 157 192 239 274 308 281 292 275 248 208 244 266 268 243 213 261 234 245 264 233 243 229 234 237 244 244 247 249 249 250 250 250 250 249 247 246 245 243 242 241 241
219 216 216 217 218 218 220 220 222 221 220 215 206 194 187 188 185 189 197 206 199 197 206 209 205 209 221 227 213 211 216 198 182 197 179 206 227 247 267 290 307 281 186 219 223 274 273 181 237 254 247 256 250 230 238 240 239 242 247 248 249 250 251 251 251 251 251 250 248 246 244 243 243 242
228 216 214 216 215 215 214 215 219 219 219 220 222 220 212 201 194 190 187 196 202 201 205 209 212 204 214 221 204 219 192 213 202 203 175 176 190 232 241 226 234 254 168 174 201 265 286 179 222 258 256 254 245 241 242 243 244 246 249 252 253 252 252 252 252 251 251 251 249 248 246 244 243 243
230 220 212 212 213 216 211 210 213 216 225 225 224 223 223 218 203 197 199 194 192 188 196 204 216 211 207 214 224 205 201 164 180 164 190 208 205 209 231 235 251 278 191 134 237 253 262 280 266 254 253 255 256 253 248 250 252 253 253 254 254 254 255 256 256 254 253 252 251 249 247 245 244 244
237 262 226 208 212 213 212 212 212 214 215 218 220 224 219 201 192 187 192 196 199 191 195 197 214 219 176 202 208 215 156 141 184 193 237 237 251 243 238 232 236 252 138 203 228 274 266 251 262 263 258 243 253 248 248 251 253 256 258 259 258 259 259 259 259 259 257 256 254 253 251 248 246 246
215 211 243 242 215 209 212 210 207 205 204 201 204 203 202 196 198 194 200 202 201 198 192 191 204 203 203 206 202 208 216 214 228 209 225 225 231 238 274 315 249 267 234 202 157 266 260 215 254 261 264 259 255 253 257 252 254 256 258 260 262 261 263 264 265 264 263 262 260 257 256 254 252 250
212 207 209 229 228 212 212 215 208 204 197 199 199 200 200 201 204 209 210 205 201 194 188 192 198 201 189 189 201 212 213 231 244 257 239 134 105 291 287 262 277 257 245 190 202 259 258 187 243 270 264 265 270 262 258 262 256 258 260 262 263 268 271 272 273 275 275 272 270 271 269 266 263 259
213 212 202 204 227 220 211 216 214 215 197 197 201 198 195 193 193 214 219 207 209 183 182 190 189 175 174 175 193 211 227 223 192 125 195 257 218 247 265 267 260 260 211 224 212 246 272 203 220 268 279 272 278 285 267 260 255 254 263 272 275 274 273 273 274 275 276 277 276 271 266 263 262 265
210 219 209 190 184 211 223 212 210 211 199 198 201 196 190 185 197 216 215 212 223 225 222 225 221 218 222 229 240 245 244 231 206 180 222 212 156 239 257 271 265 269 193 236 198 229 253 282 195 249 291 303 253 266 273 270 317 340 301 289 295 296 288 280 280 279 280 281 278 276 273 272 267 254
197 207 222 188 181 192 201 176 179 180 180 186 188 188 184 191 200 210 198 202 187 185 199 223 222 242 237 234 228 237 229 212 203 205 222 208 189 242 253 254 281 288 255 249 142 214 281 290 307 69 326 295 277 232 271 345 24 336 325 309 301 292 293 298 302 297 292 289 290 290 284 274 250 250
186 192 197 199 189 197 188 177 176 175 168 167 173 164 179 184 212 210 200 209 194 203 200 203 200 213 202 203 211 222 220 207 204 208 215 215 206 219 235 237 230 249 247 252 168 206 286 52 292 142 218 278 301 322 335 311 318 293 281 286 284 294 310 315 312 309 312 316 312 294 285 280 227 228
187 194 195 199 184 184 181 183 186 186 182 176 169 180 188 197 197 155 197 216 206 198 207 206 206 220 220 223 219 219 220 222 220 221 216 213 206 211 232 241 244 254 239 224 163 88 268 216 256 277 269 203 266 295 291 290 278 277 277 287 308 319 327 305 301 304 309 315 317 306 290 279 225 208
189 193 191 184 173 174 177 181 182 189 190 186 175 192 184 165 163 173 197 195 198 192 197 214 227 232 231 232 230 225 222 224 226 225 221 212 212 213 216 220 235 258 259 232 171 185 222 254 226 239 240 229 271 263 295 298 291 283 349 342 323 306 301 300 312 315 327 327 320 319 318 316 232 221
193 192 176 170 161 167 165 168 174 181 194 194 207 186 174 178 183 185 173 179 189 200 204 208 221 225 224 227 227 224 232 235 232 234 227 219 211 227 233 226 222 249 263 247 194 198 197 237 200 207 252 247 262 277 269 282 307 25 330 312 306 308 330 344 343 336 336 332 321 324 329 333 287 245
184 180 137 170 169 162 164 168 174 185 188 201 211 198 189 189 189 190 185 188 199 200 208 217 224 227 223 224 230 228 226 232 231 231 226 229 225 231 256 256 229 229 242 238 211 207 201 225 244 236 236 245 254 276 296 284 298 302 298 290 287 15 20 18 0 351 352 336 339 351 8 17 24 2
175 158 161 157 153 153 161 173 181 194 207 216 218 212 200 202 192 197 200 204 197 212 219 221 223 225 224 221 224 222 225 235 217 202 229 235 239 224 237 242 238 233 229 235 221 214 216 221 238 243 235 218 264 272 274 287 306 319 332 336 349 44 1 3 2 353 348 353 14 29 38 33 34 19
160 159 169 167 155 151 151 145 161 183 207 219 224 217 201 210 204 202 203 206 208 222 224 223 221 222 220 218 220 222 212 198 218 213 207 172 177 130 142 347 312 301 286 289 259 228 215 221 231 239 256 259 229 258 265 284 320 354 345 357 310 235 23 343 350 350 8 359 27 31 30 33 39 32
150 163 159 157 164 165 172 180 193 204 214 217 222 219 208 205 209 203 204 204 210 217 221 223 226 223 215 206 195 203 200 216 222 184 179 151 173 166 146 164 277 312 318 334 3 21 79 138 170 166 211 253 252 248 316 349 329 313 299 331 21 18 320 332 332 340 350 335 8 49 45 40 35 31
150 148 131 129 137 134 136 169 187 198 204 203 201 211 204 208 214 218 220 222 223 227 222 230 221 220 190 200 211 211 201 208 203 160 151 150 181 182 135 101 261 282 319 358 33 34 47 46 71 76 104 148 198 291 57 100 4 319 286 318 333 304 321 314 322 323 329 353 15 40 25 38 38 22
125 128 140 148 154 159 162 183 196 202 206 201 199 202 208 208 206 212 209 217 219 213 207 217 213 215 203 217 212 193 179 170 157 146 144 169 150 141 137 168 207 219 190 24 38 49 47 43 47 71 64 36 11 263 165 322 286 266 271 302 344 332 321 325 338 327 328 23 23 285 18 51 53 28
156 164 165 175 174 180 185 198 202 205 206 207 207 209 204 204 209 211 216 219 218 205 208 210 203 210 206 214 191 179 168 152 155 173 166 165 174 143 159 166 217 221 184 154 150 144 105 63 63 46 42 26 4 339 180 141 248 288 276 307 329 301 293 311 325 331 360 345 291 12 354 353 12 27
174 171 178 182 186 188 193 200 199 199 200 207 211 218 210 207 212 215 217 218 212 212 212 208 206 206 202 202 185 172 167 165 179 161 173 161 166 165 167 160 192 200 146 149 169 209 145 137 122 86 15 343 320 278 227 183 139 263 324 304 243 259 286 302 315 334 356 360 35 39 330 317 335 353
186 191 190 191 189 191 197 205 206 202 207 211 214 218 217 223 219 214 220 208 200 209 207 207 206 204 197 192 180 169 165 161 170 176 166 143 131 147 163 171 171 176 165 165 181 197 166 144 140 133 148 237 203 344 304 263 225 167 149 258 276 236 271 299 315 323 5 345 29 73 26 307 302 320
196 194 195 200 199 198 208 206 210 214 215 220 221 218 221 226 222 218 219 194 200 202 204 196 200 193 188 179 168 164 163 160 176 182 181 187 171 176 153 154 175 153 137 202 184 194 159 139 136 123 123 105 120 206 260 296 280 244 152 185 252 249 250 321 349 331 291 235 314 279 242 258 288 299
214 199 205 206 205 207 209 209 206 214 216 217 219 220 222 224 219 215 203 190 201 197 193 192 192 182 177 166 161 170 174 182 173 175 180 153 153 174 160 160 190 153 180 221 191 209 173 162 143 148 130 149 167 243 280 304 350 257 204 161 185 257 196 5 330 288 293 304 231 262 160 291 277 283
203 209 211 218 214 211 213 214 212 216 217 217 217 216 216 216 210 198 190 198 192 189 183 183 180 178 171 172 172 169 176 176 179 185 174 183 176 151 164 159 212 169 128 195 204 229 165 191 192 170 171 173 182 209 191 204 262 260 225 198 170 188 251 188 236 265 263 288 304 306 268 258 292 328
214 208 213 214 223 218 223 217 221 220 222 221 219 215 207 204 196 192 191 188 184 184 178 177 171 167 172 175 179 179 180 181 184 189 179 182 187 177 188 180 191 186 142 185 203 235 226 227 213 194 193 203 213 203 183 193 245 257 259 231 210 195 203 168 206 222 296 262 288 354 321 342 340 319
211 213 219 216 222 221 224 225 224 226 226 224 220 216 207 199 190 193 186 179 171 169 172 171 170 176 181 182 183 174 182 190 181 186 180 187 208 200 190 183 196 179 179 217 208 224 232 227 223 212 187 182 164 101 29 340 299 301 302 274 221 219 211 179 186 165 203 229 18 292 277 291 298 340
208 219 222 217 223 230 228 237 238 234 233 220 212 205 195 188 194 175 173 170 166 168 167 171 177 180 182 182 180 175 178 191 196 198 186 187 208 206 194 185 206 202 186 228 223 221 237 236 291 120 137 127 130 151 249 234 253 270 266 273 294 220 215 211 194 195 204 203 148 348 334 344 23 345
211 218 224 223 222 228 228 236 242 234 223 201 192 181 172 175 174 169 171 172 173 172 178 179 180 179 183 184 181 177 180 194 197 199 195 196 200 190 196 208 208 210 209 231 237 250 276 288 287 145 162 168 200 175 230 248 239 251 280 290 272 246 218 195 183 208 206 217 214 194 183 185 129 311
212 213 221 218 218 223 230 232 231 213 195 183 175 169 170 170 177 182 177 178 177 183 181 181 182 185 189 189 181 183 189 198 194 198 202 197 205 200 196 204 209 219 222 228 253 262 272 280 271 180 171 220 199 191 233 243 257 248 249 260 260 199 216 221 238 296 301 259 217 182 175 201 225 240
212 212 214 217 217 220 223 222 211 197 189 181 170 176 176 176 179 179 183 182 185 184 183 186 188 193 189 180 171 190 208 208 198 208 200 199 199 212 210 196 203 217 228 223 216 264 264 261 277 158 213 243 188 204 230 220 236 253 250 244 257 237 209 183 210 241 247 264 225 164 92 77 63 52